"Time","Temp","Dewpoint","Humidity","Pressure","Direction","Speed","Gust","Precip","PrecipRate"
"00:04:58","67.2","61.2","81.2","29.94","355","0.1","1.2","0.00","0.00"
"00:09:58","67.4","61.3","80.8","29.94","334","0.5","2.3","0.00","0.00"
"00:14:58","67.5","60.9","79.5","29.94","330","0.2","1.2","0.00","0.00"
"00:19:57","67.6","59.8","76","29.93","330","0","1.2","0.00","0.00"
"00:24:56","67.8","60.6","77.9","29.93","330","0","1","0.00","0.00"
"00:29:58","67.7","60","76.4","29.93","293","0.8","4","0.00","0.00"
"00:34:57","67.7","58.2","71.8","29.93","202","2.7","6","0.00","0.00"
"00:39:57","67.8","58","70.9","29.93","195","2.5","5","0.00","0.00"
"00:44:59","67.8","58.3","71.7","29.93","194","2.3","5","0.00","0.00"
"00:49:58","67.7","58.4","72.1","29.93","195","1.1","3.5","0.00","0.00"
"00:54:57","67.6","58.3","72.2","29.93","197","1.7","4","0.00","0.00"
"00:59:59","67.5","58.4","72.8","29.93","199","1.3","3.5","0.00","0.00"
"01:04:58","67.4","58.4","73","29.93","199","1.6","3.5","0.00","0.00"
"01:09:57","67.3","58.2","72.8","29.93","196","1.6","3.5","0.00","0.00"
"01:14:56","67.2","58.5","73.7","29.93","196","0.8","2.3","0.00","0.00"
"01:19:59","67.2","58.8","74.6","29.93","196","0.5","2.3","0.00","0.00"
"01:24:58","67","59","75.5","29.93","202","1.3","4","0.00","0.00"
"01:29:57","66.8","58.9","75.6","29.93","198","1.3","4","0.00","0.00"
"01:34:59","66.7","58.9","76","29.93","194","1.4","4","0.00","0.00"
"01:39:59","66.7","59.3","76.9","29.93","192","0.5","2.3","0.00","0.00"
"01:44:58","66.6","59.5","77.9","29.93","192","0.4","2","0.00","0.00"
"01:49:57","66.5","59.6","78.5","29.93","187","0.9","4","0.00","0.00"
"01:54:56","66.2","59.8","79.8","29.93","186","0.1","1.2","0.00","0.00"
"01:59:59","65.9","59.7","80.5","29.93","186","0.1","1.2","0.00","0.00"
"02:04:58","65.7","59.9","81.6","29.93","186","0","1.2","0.00","0.00"
"02:09:57","65.4","59.9","82.2","29.93","186","0","0","0.00","0.00"
"02:14:57","65.3","59.9","82.8","29.93","186","0","0","0.00","0.00"
"02:19:57","65.1","60.3","84.5","29.92","186","0","0","0.00","0.00"
"02:24:55","64.8","60.1","84.6","29.92","186","0","0","0.00","0.00"
"02:29:59","64.7","60.2","85.5","29.92","186","0","0","0.00","0.00"
"02:34:58","64.7","60.4","86","29.92","186","0","0","0.00","0.00"
"02:39:58","64.6","60.4","86.4","29.92","186","0","0","0.00","0.00"
"02:44:57","64.5","60.6","87.4","29.92","186","0","0","0.00","0.00"
"02:49:56","64.3","60.7","88","29.92","186","0","0","0.00","0.00"
"02:54:59","64","60.4","88","29.92","186","0","0","0.00","0.00"
"02:59:58","63.8","60.5","88.8","29.92","186","0","0","0.00","0.00"
"03:04:58","63.7","60.5","89.3","29.92","186","0","0","0.00","0.00"
"03:09:57","63.7","60.7","90","29.92","186","0","0","0.00","0.00"
"03:14:57","63.6","60.6","90","29.92","186","0","0","0.00","0.00"
"03:19:57","63.5","60.5","90","29.91","186","0","0","0.00","0.00"
"03:24:56","63.4","60.4","90","29.91","186","0","0","0.00","0.00"
"03:29:59","63.4","60.4","90","29.91","186","0","0","0.00","0.00"
"03:34:58","63.3","60.4","90.3","29.91","186","0","0","0.00","0.00"
"03:39:58","63.3","60.6","91","29.91","186","0","0","0.00","0.00"
"03:44:57","63.2","60.5","91","29.91","186","0","0","0.00","0.00"
"03:49:56","63.1","60.4","91","29.91","186","0","0","0.00","0.00"
"03:54:59","63.1","60.4","91","29.91","186","0","0","0.00","0.00"
"03:59:58","63.1","60.4","91","29.91","186","0","0","0.00","0.00"
"04:04:56","63.3","60.4","90.5","29.91","186","0","0","0.00","0.00"
"04:09:56","63.4","60.6","90.8","29.91","186","0","0","0.00","0.00"
"04:14:56","63.4","60.7","90.9","29.91","186","0","0","0.00","0.00"
"04:19:59","63.5","60.6","90.4","29.91","186","0","0","0.00","0.00"
"04:24:58","63.5","60.8","91","29.91","186","0","0","0.00","0.00"
"04:29:58","63.4","60.7","91","29.91","186","0","0","0.00","0.00"
"04:34:56","63.3","60.6","91","29.91","186","0","0","0.00","0.00"
"04:39:56","63.2","60.7","91.5","29.91","186","0","0","0.00","0.00"
"04:44:59","63.1","60.7","92","29.91","186","0","0","0.00","0.00"
"04:49:58","63.1","60.7","92","29.91","186","0","0","0.00","0.00"
"04:54:57","63.1","60.7","92","29.91","186","0","0","0.00","0.00"
"04:59:56","63","60.6","92","29.92","186","0","0","0.00","0.00"
"05:04:59","63","60.7","92.4","29.92","186","0","0","0.00","0.00"
"05:09:58","63","60.9","93","29.92","186","0","0","0.00","0.00"
"05:14:58","62.9","60.8","93","29.92","186","0","0","0.00","0.00"
"05:19:58","62.9","60.8","93","29.92","186","0","0","0.00","0.00"
"05:24:57","62.8","60.7","93","29.92","186","0","0","0.00","0.00"
"05:29:56","62.8","60.8","93.3","29.93","186","0","0","0.00","0.00"
"05:34:59","62.8","60.9","93.8","29.93","186","0","0","0.00","0.00"
"05:39:59","62.8","61","94","29.93","186","0","0","0.00","0.00"
"05:44:58","62.8","60.8","93.5","29.93","186","0","0","0.00","0.00"
"05:49:57","62.7","60.6","93","29.93","186","0","0","0.00","0.00"
"05:54:56","62.6","60.5","93","29.93","186","0","0","0.00","0.00"
"05:59:56","62.6","60.5","93","29.94","186","0","0","0.01","0.00"
"06:04:58","62.7","60.9","93.9","29.94","186","0","0","0.01","0.01"
"06:09:58","62.8","61","94","29.94","186","0","0","0.01","0.01"
"06:14:58","62.8","60.8","93.3","29.94","186","0.3","3","0.01","0.01"
"06:19:57","62.8","60.4","92","29.94","186","0.2","2.3","0.01","0.01"
"06:24:56","62.7","60.3","92","29.94","186","0.1","2.3","0.01","0.01"
"06:29:58","62.7","60.6","93","29.94","186","0","0","0.02","0.02"
"06:34:57","62.6","60.5","93","29.94","186","0","1","0.03","0.02"
"06:39:56","62.5","60.4","93","29.94","186","0.2","2","0.03","0.03"
"06:44:58","62.4","60.3","93","29.95","186","0.3","2.3","0.03","0.03"
"06:49:57","62.4","60.3","93","29.95","186","0","0","0.03","0.03"
"06:54:56","62.3","60.1","92.7","29.95","186","0","0","0.04","0.04"
"06:59:59","62.2","60.2","93","29.95","186","0","0","0.04","0.04"
"07:04:57","62.1","60.1","93","29.95","186","0","0","0.04","0.03"
"07:09:56","62.1","60.4","93.8","29.95","186","0","0","0.04","0.03"
"07:14:56","62.1","60.4","94","29.96","196","0.1","1.2","0.04","0.03"
"07:19:58","62","60.3","93.8","29.96","196","0.2","1.2","0.04","0.03"
"07:24:57","62","60.3","94","29.96","197","0.5","3.5","0.05","0.04"
"07:29:59","62","60.3","94","29.96","199","0.6","2.3","0.05","0.04"
"07:34:57","62.1","60.4","94","29.96","199","0.5","3.5","0.05","0.03"
"07:39:57","62.1","60.4","94","29.96","199","0.3","2.3","0.05","0.02"
"07:44:56","62","60.1","93.2","29.96","199","0.8","3.5","0.05","0.02"
"07:49:58","62.1","60.3","93.6","29.96","199","0.3","2.3","0.05","0.02"
"07:54:57","62.2","60.3","93.3","29.96","199","0.3","3","0.05","0.02"
"07:59:56","62.2","60.2","93","29.97","232","0.9","3.5","0.05","0.01"
"08:04:58","62.3","60.2","92.8","29.97","253","1.1","4","0.05","0.01"
"08:09:57","62.3","60.1","92.7","29.97","302","0.5","3.5","0.05","0.01"
"08:14:56","62.3","60.2","93","29.97","294","0.3","2","0.05","0.01"
"08:19:59","62.3","60.2","93","29.97","286","0.8","3.5","0.05","0.01"
"08:24:57","62.3","60.2","93","29.97","304","1.2","4","0.06","0.01"
"08:29:56","62.4","60.6","93.7","29.98","317","0.2","2.3","0.06","0.01"
"08:34:58","62.5","60.6","93.8","29.98","317","0.7","3","0.06","0.01"
"08:39:57","62.5","60.4","93","29.98","316","1.1","3.5","0.06","0.01"
"08:44:56","62.4","60.3","93","29.98","317","0.4","2.3","0.06","0.01"
"08:49:58","62.4","60.3","93","29.98","318","0.6","3","0.06","0.01"
"08:54:57","62.4","60.3","93","29.98","323","0.4","3.5","0.06","0.01"
"08:59:59","62.5","60.4","93","29.98","320","0.6","2.3","0.06","0.01"
"09:04:57","62.6","60.5","93","29.98","320","0.3","2.3","0.06","0.01"
"09:09:56","62.6","60.4","92.7","29.98","320","0.5","3","0.06","0.01"
"09:14:56","62.6","60.3","92.3","29.98","338","0.7","5","0.06","0.01"
"09:19:59","62.5","60.1","91.8","29.98","299","0.8","5","0.06","0.01"
"09:24:57","62.4","60","92","29.98","353","1.6","5","0.06","0.01"
"09:29:56","62.3","59.7","91.4","29.99","22","1.1","4","0.06","0.00"
"09:34:58","62.3","59.7","91.4","29.99","40","0.9","3.5","0.06","0.00"
"09:39:58","62.3","59.9","92","29.99","8","0.9","4","0.06","0.00"
"09:44:56","62.3","59.9","91.8","29.99","334","0.9","4","0.06","0.00"
"09:49:58","62.4","59.8","91.6","29.99","321","0.6","3","0.06","0.00"
"09:54:57","62.4","59.8","91.2","29.99","323","0.8","3.5","0.06","0.00"
"09:59:59","62.4","59.7","91","29.99","325","0","0","0.06","0.00"
"10:04:58","62.4","59.8","91","29.99","325","0","0","0.06","0.00"
"10:09:57","62.6","59.9","91.3","29.99","280","0.2","2","0.06","0.00"
"10:14:56","62.6","59.9","91","29.99","318","1.4","4","0.06","0.00"
"10:19:59","62.7","60","91","29.99","11","0.2","3.5","0.06","0.00"
"10:24:57","62.8","60.1","91","29.99","11","1.1","3.5","0.06","0.00"
"10:29:56","62.9","60.1","90.6","29.99","2","1.7","4","0.06","0.00"
"10:34:58","63","60.3","91","29.99","355","0.6","2.3","0.06","0.00"
"10:39:57","63.2","60.4","90.8","29.99","353","1.2","3.5","0.06","0.00"
"10:44:56","63.4","60.6","90.9","29.99","52","0.8","3.5","0.06","0.00"
"10:49:58","63.4","60.5","90.3","29.99","23","1.3","4","0.06","0.00"
"10:54:57","63.4","60.4","90","29.99","351","1","3.5","0.06","0.00"
"10:59:59","63.3","60.3","90","29.99","336","0.8","4","0.06","0.00"
"11:04:57","63.4","60.5","90.3","29.99","314","1","3.5","0.06","0.00"
"11:09:56","63.6","60.6","90.2","29.99","319","0.3","3.5","0.06","0.00"
"11:14:56","63.8","60.7","89.8","29.99","320","0.9","3.5","0.06","0.00"
"11:19:58","63.9","60.6","88.8","29.99","320","0.9","3.5","0.06","0.00"
"11:24:56","64","60.5","88.5","29.99","320","0.5","2.3","0.06","0.00"
"11:29:59","64.1","60.7","88.7","29.99","320","0.3","2","0.06","0.00"
"11:34:57","64.4","61.2","89.3","29.99","320","0.4","3.5","0.06","0.00"
"11:39:57","64.6","61","88.1","29.99","320","1.2","3.5","0.06","0.00"
"11:44:57","64.7","61.1","88","29.99","328","1","5","0.06","0.00"
"11:49:59","64.6","60.8","87.5","29.99","337","1","4.6","0.06","0.00"
"11:54:58","64.6","60.7","87","29.99","339","0.8","3.5","0.06","0.00"
"11:59:56","64.7","60.6","86.7","29.99","338","0.3","3.5","0.06","0.00"
"12:04:58","64.8","61.1","87.7","29.99","339","0","2","0.06","0.00"
"12:09:57","65.1","60.8","86.1","29.99","341","1.7","4","0.06","0.00"
"12:14:57","65","60.5","85.2","29.99","344","1.9","4.6","0.06","0.00"
"12:19:59","65.1","60.5","85","29.99","344","0.3","2.3","0.06","0.00"
"12:24:58","65.1","60.6","85.3","29.99","344","1","3.5","0.06","0.00"
"12:29:56","65","60.4","85","30.00","341","1","3.5","0.06","0.00"
"12:34:59","65","60.5","85.5","30.00","338","0.7","3.5","0.06","0.00"
"12:39:58","65","60.7","86","30.00","339","1","3.5","0.06","0.00"
"12:44:56","65","60.9","86.5","30.00","339","1","3","0.06","0.00"
"12:49:58","65","60.7","86.1","29.99","333","1.1","4","0.06","0.00"
"12:54:57","65.2","61","86.6","29.99","304","1.2","4","0.06","0.00"
"12:59:59","65.2","60.7","85.4","29.99","354","1.6","4","0.06","0.00"
"13:04:57","65.6","61.5","86.5","29.99","343","0.5","3.5","0.06","0.00"
"13:09:56","66.1","61.5","84.8","29.99","338","1.4","4","0.06","0.00"
"13:14:56","66.5","61.3","83.5","29.99","337","1.3","4","0.06","0.00"
"13:19:58","66.5","60.9","82.3","29.98","333","1","4","0.06","0.00"
"13:24:57","66.3","60.5","81.5","29.98","348","1.3","3.5","0.06","0.00"
"13:29:56","66.3","60.7","82.4","29.98","349","0.2","1.2","0.06","0.00"
"13:34:58","66.3","60.8","82.5","29.98","346","1.6","4","0.06","0.00"
"13:39:57","66.2","60.5","82","29.98","345","2.3","4","0.06","0.00"
"13:44:59","66.1","61","83.5","29.98","347","1.2","3.5","0.06","0.00"
"13:49:58","66.2","61.1","83.7","29.97","340","1.5","4","0.06","0.00"
"13:54:56","66.4","61.4","83.7","29.97","338","0.9","3.5","0.06","0.00"
"13:59:58","66.5","61.1","82.8","29.97","335","1.7","3.5","0.06","0.00"
"14:04:59","66.4","61.1","83","29.97","332","0.6","2.3","0.06","0.00"
"14:09:58","66.3","60.5","81.7","29.97","333","1","2.3","0.06","0.00"
"14:14:58","66.1","60.6","82.4","29.97","333","0.3","2.3","0.06","0.00"
"14:19:57","66","60.3","82","29.97","333","0.9","2.3","0.06","0.00"
"14:24:59","65.8","60.4","82.5","29.97","333","0.6","2.3","0.06","0.00"
"14:29:57","65.8","60.4","82.5","29.97","333","0","1.2","0.06","0.00"
"14:34:56","65.9","60.4","82.4","29.96","333","0","1.2","0.06","0.00"
"14:39:59","66.2","60.7","82.6","29.96","333","0.5","3","0.06","0.00"
"14:44:58","66.8","61.3","82.3","29.96","331","1","4","0.06","0.00"
"14:49:56","67.3","61.1","80.3","29.96","331","0.2","3.5","0.06","0.00"
"14:54:59","68","61.6","79.9","29.96","4","0.7","4","0.06","0.00"
"14:59:57","68.7","62.2","79.7","29.96","44","0.4","2.3","0.06","0.00"
"15:04:58","69.3","62.6","79.3","29.95","169","0.9","2.3","0.06","0.00"
"15:09:57","69.8","62.1","76.7","29.95","137","0.8","3.5","0.06","0.00"
"15:14:57","70","61.6","75","29.95","117","0.6","3.5","0.06","0.00"
"15:19:56","70","61.7","74.9","29.94","115","0.6","2.3","0.06","0.00"
"15:24:58","70.2","61.5","74","29.94","0","0.6","3.5","0.06","0.00"
"15:29:56","70.5","62","74.7","29.94","336","1.7","4","0.06","0.00"
"15:34:58","70.9","62.7","75.3","29.94","325","1.1","5","0.06","0.00"
"15:39:58","71.2","62.3","73.4","29.94","349","2.2","5","0.06","0.00"
"15:44:56","71.4","62.4","73.3","29.94","328","1.3","5","0.06","0.00"
"15:49:59","71.5","62.2","72.5","29.94","353","1.8","5","0.06","0.00"
"15:54:57","71.4","62.4","73.1","29.94","73","0.9","3","0.06","0.00"
"15:59:56","71.3","62.6","74.2","29.94","71","0.8","3.5","0.06","0.00"
"16:04:57","71.1","62.3","74","29.94","38","0.6","3.5","0.06","0.00"
"16:09:56","70.7","61.8","73.5","29.94","37","0.8","2.3","0.06","0.00"
"16:14:56","70.2","61.7","74.5","29.94","358","1.6","5","0.06","0.00"
"16:19:58","70.1","62.3","76.2","29.93","334","1.2","4.6","0.06","0.00"
"16:24:56","70.2","62.7","77.2","29.93","329","0.5","2.3","0.06","0.00"
"16:29:59","70.3","62.6","76.8","29.93","338","1","4","0.06","0.00"
"16:34:57","70.4","62.9","77.3","29.93","21","0.5","3.5","0.06","0.00"
"16:39:56","70.3","62.9","77.3","29.93","19","1","4","0.06","0.00"
"16:44:59","70.4","62.7","76.7","29.94","5","1.4","5","0.06","0.00"
"16:49:57","70.3","62.3","75.7","29.94","3","2.5","5","0.06","0.00"
"16:54:59","70.1","62.5","76.8","29.94","345","2.3","6","0.06","0.00"
"16:59:58","70.1","62.5","76.9","29.94","339","0.7","3.5","0.06","0.00"
"17:04:56","70.1","62.8","77.5","29.94","339","0.1","1.2","0.06","0.00"
"17:09:59","70.1","62.6","77.1","29.94","325","1.5","5","0.06","0.00"
"17:14:57","70","62.6","77.5","29.94","318","0.8","3.5","0.06","0.00"
"17:19:56","70","62.7","77.7","29.94","318","1.5","4","0.06","0.00"
"17:24:59","69.8","62.1","76.5","29.94","319","2.2","4","0.06","0.00"
"17:29:56","69.5","62","77.1","29.94","334","1.8","5","0.06","0.00"
"17:34:59","69.4","62.2","78","29.94","327","0.4","3.5","0.06","0.00"
"17:39:58","69.3","62.3","78.5","29.94","327","0","0","0.06","0.00"
"17:44:57","69.2","62.1","78.2","29.94","327","0.1","3","0.06","0.00"
"17:49:59","69.5","62.7","79","29.94","327","1.1","3.5","0.06","0.00"
"17:54:58","69.8","62.6","77.9","29.94","327","1.3","3.5","0.06","0.00"
"17:59:56","69.9","62.3","76.8","29.94","332","2.2","5","0.06","0.00"
"18:04:58","69.8","62","76.3","29.94","331","0.6","4.6","0.06","0.00"
"18:09:57","69.7","61.9","76.2","29.94","331","1.9","4","0.06","0.00"
"18:14:56","69.8","62.1","76.7","29.94","331","1.4","3.5","0.06","0.00"
"18:19:59","70","62.4","76.7","29.94","331","0.7","3.5","0.06","0.00"
"18:24:57","70.2","62.1","75.6","29.94","331","1.4","3.5","0.06","0.00"
"18:29:56","70.2","61.9","74.8","29.94","331","1.3","4","0.06","0.00"
"18:34:58","70.3","62.1","75.2","29.94","331","0.3","2.3","0.06","0.00"
"18:39:57","70.3","62.1","75.4","29.94","331","0.2","2.3","0.06","0.00"
"18:44:56","70.3","62","75","29.94","331","0.4","2.3","0.06","0.00"
"18:49:58","70.1","62.2","76","29.94","331","1.1","3.5","0.06","0.00"
"18:54:56","70.1","62.5","76.7","29.94","331","0.6","3.5","0.06","0.00"
"18:59:59","70.1","62.4","76.7","29.94","331","0.6","3.5","0.06","0.00"
"19:04:57","69.9","62.2","76.3","29.94","331","0.6","3.5","0.06","0.00"
"19:09:56","69.8","61.9","76.1","29.94","331","0.7","2.3","0.06","0.00"
"19:14:56","69.7","62.1","76.8","29.94","331","0.1","2.3","0.06","0.00"
"19:19:59","69.6","62.4","77.7","29.94","331","0.2","2.3","0.06","0.00"
"19:24:57","69.6","62.1","77.1","29.94","329","1","3.5","0.06","0.00"
"19:29:59","69.4","62","77.1","29.94","329","1.4","3.5","0.06","0.00"
"19:34:58","69.3","61.9","77.5","29.94","329","0.3","2.3","0.06","0.00"
"19:39:57","69.2","62","78","29.94","329","0.1","2.3","0.06","0.00"
"19:44:56","69.1","62.1","78.6","29.94","329","0.3","2.3","0.06","0.00"
"19:49:58","69","62.2","79","29.94","329","0.7","2.3","0.06","0.00"
"19:54:57","68.8","62","79","29.94","329","0","0","0.06","0.00"
"19:59:59","68.6","62.2","80","29.94","329","0.2","2.3","0.06","0.00"
"20:04:57","68.4","62","80.1","29.94","329","0.1","1.2","0.06","0.00"
"20:09:57","68.2","62.1","81","29.94","329","0.1","1.2","0.06","0.00"
"20:14:57","67.9","62.1","81.7","29.94","329","0","0","0.06","0.00"
"20:19:56","67.6","62.4","83.4","29.94","329","0.5","2.3","0.06","0.00"
"20:24:59","67.2","62.2","84","29.94","329","0","0","0.06","0.00"
"20:29:58","66.9","62.1","84.9","29.95","329","0","0","0.06","0.00"
"20:34:56","66.6","61.8","84.6","29.95","329","0","0","0.06","0.00"
"20:39:56","66.4","61.8","85","29.95","329","0","0","0.06","0.00"
"20:44:59","66.4","61.7","84.7","29.95","329","0","0","0.06","0.00"
"20:49:59","66.5","61.7","84.5","29.94","329","0","0","0.06","0.00"
"20:54:58","66.5","61.9","85.1","29.94","329","0","0","0.06","0.00"
"20:59:56","66.5","61.6","84.3","29.95","329","0.7","3","0.06","0.00"
"21:04:59","66.5","61.6","84.4","29.95","329","0.2","3.5","0.06","0.00"
"21:09:58","66.5","61.4","83.7","29.95","329","0","0","0.06","0.00"
"21:14:58","66.6","61.5","83.8","29.95","329","0.3","1.2","0.06","0.00"
"21:19:57","66.6","61.6","83.8","29.95","329","0","0","0.06","0.00"
"21:24:56","66.7","61.7","84","29.95","328","0.1","1.2","0.06","0.00"
"21:29:58","66.7","61.9","84.9","29.96","328","0","0","0.06","0.00"
"21:34:58","66.6","62.1","85.5","29.96","328","0","0","0.06","0.00"
"21:39:58","66.3","61.7","85","29.96","328","0","0","0.06","0.00"
"21:44:57","66.2","61.8","85.5","29.96","328","0.1","1.2","0.06","0.00"
"21:49:56","66.2","61.6","85.2","29.96","328","0.2","1.2","0.06","0.00"
"21:54:58","66.2","61.6","85","29.96","328","0.1","2","0.06","0.00"
"21:59:57","66.4","61.8","85","29.96","328","0.5","2.3","0.06","0.00"
"22:04:56","66.4","61.8","85","29.96","328","0","0","0.06","0.00"
"22:09:59","66.3","61.8","85.4","29.96","328","0","0","0.06","0.00"
"22:14:59","66.1","61.5","85.1","29.96","328","0","0","0.06","0.00"
"22:19:58","66.1","61.5","85","29.96","328","0","0","0.06","0.00"
"22:24:57","66.1","61.5","85.1","29.96","328","0","0","0.06","0.00"
"22:29:56","66.2","61.9","86","29.96","328","0","0","0.06","0.00"
"22:34:59","66.2","61.9","86","29.96","328","0","0","0.06","0.00"
"22:39:59","66.1","61.9","86.4","29.96","328","0","0","0.06","0.00"
"22:44:58","65.9","61.8","86.5","29.97","328","0","0","0.06","0.00"
"22:49:57","65.7","61.7","87","29.97","328","0","0","0.06","0.00"
"22:54:56","65.6","61.6","87","29.97","328","0","0","0.06","0.00"
"22:59:58","65.5","61.5","87","29.97","328","0","0","0.06","0.00"
"23:04:57","65.2","61.6","88","29.97","328","0","0","0.06","0.00"
"23:09:56","65.1","61.5","88","29.97","328","0","0","0.06","0.00"
"23:14:57","65","61.6","88.9","29.97","328","0","0","0.06","0.00"
"23:19:56","64.8","61.5","89","29.96","328","0","0","0.06","0.00"
"23:24:59","64.7","61.4","89","29.96","328","0","0","0.06","0.00"
"23:29:58","64.7","61.6","89.8","29.97","328","0","0","0.06","0.00"
"23:34:56","64.7","61.7","90","29.97","328","0","0","0.06","0.00"
"23:39:56","64.7","61.7","90.1","29.97","328","0.2","1.2","0.06","0.00"
"23:44:56","64.7","62","91","29.97","328","0","1.2","0.06","0.00"
"23:49:59","64.7","61.9","90.9","29.96","328","0","0","0.06","0.00"
"23:54:58","64.5","61.5","90","29.96","328","0","0","0.06","0.00"
"23:59:56","64.3","61.5","90.7","29.96","328","0","0","0.06","0.00"
